GW5869 Weather Reports


time (UTC)temp
C
wind
direction
speed
KPH
gust
KPH
rain 1hr
cm
rain 24hr
cm
rain mn
cm
humidity
%
barometer
mb
20260508005543 24 54 3.2 3.2 0.00 0.25 0.25 92 1017.1
20260508005040 24 313 3.2 3.2 0.00 0.25 0.25 92 1017.2
20260508004536 24 283 1.6 3.2 0.00 0.25 0.25 92 1017.1
20260508004033 24 331 3.2 4.8 0.00 0.25 0.25 91 1016.9
20260508003529 24 31 3.2 3.2 0.00 0.25 0.25 91 1017.0
20260508003027 24 305 3.2 3.2 0.00 0.25 0.25 91 1017.0
20260508002522 24 25 3.2 3.2 0.00 0.25 0.25 91 1017.1
20260508002021 24 268 0.0 1.6 0.00 0.25 0.25 91 1017.0
20260508001516 24 21 3.2 4.8 0.00 0.25 0.25 91 1017.1
20260508001012 24 0 1.6 1.6 0.00 0.25 0.25 91 1016.8
20260508000508 24 303 1.6 1.6 0.00 0.25 0.25 91 1016.9
20260508000006 24 59 3.2 6.4 0.00 0.25 0.25 91 1016.8
20260507235502 24 7 1.6 3.2 0.00 0.25 0.25 91 1016.8
20260507235000 24 52 4.8 4.8 0.00 0.25 0.25 91 1016.7
20260507234451 24 25 3.2 4.8 0.00 0.25 0.25 91 1016.8
20260507233949 25 52 4.8 4.8 0.00 0.25 0.25 91 1016.7
20260507233444 25 344 1.6 3.2 0.00 0.25 0.25 92 1016.6
20260507232943 24 4 3.2 3.2 0.00 0.25 0.25 92 1016.6
20260507232438 24 52 3.2 3.2 0.00 0.25 0.25 92 1016.8
20260507231936 24 328 3.2 4.8 0.00 0.25 0.25 92 1016.5
20260507231431 24 358 3.2 3.2 0.00 0.25 0.25 91 1016.4
20260507230928 25 293 1.6 1.6 0.00 0.25 0.25 91 1016.3
20260507230426 24 298 1.6 3.2 0.00 0.25 0.25 91 1016.3
20260507225926 25 27 4.8 4.8 0.00 0.25 0.25 90 1016.4
20260507225422 25 333 3.2 3.2 0.00 0.25 0.25 90 1016.2
20260507224919 24 75 4.8 4.8 0.00 0.25 0.25 90 1016.1
20260507224414 24 66 3.2 3.2 0.00 0.25 0.25 90 1016.1
20260507223911 24 48 9.7 12.9 0.00 0.25 0.25 90 1016.3
20260507223408 24 81 9.7 11.3 0.00 0.25 0.25 91 1016.1
20260507222905 25 46 6.4 6.4 0.00 0.25 0.25 92 1016.1
20260507222402 26 28 6.4 6.4 0.00 0.25 0.25 92 1016.2
20260507221859 26 320 3.2 3.2 0.00 0.25 0.25 91 1015.9
20260507221355 26 314 3.2 3.2 0.00 0.25 0.25 90 1015.8
20260507220851 26 275 1.6 1.6 0.00 0.25 0.25 89 1015.7
20260507220349 26 88 3.2 4.8 0.00 0.25 0.25 90 1015.7
20260507215845 26 244 1.6 1.6 0.13 0.25 0.25 91 1015.8
20260507215343 26 270 1.6 1.6 0.13 0.25 0.25 90 1015.7
20260507214840 26 349 1.6 3.2 0.00 0.23 0.23 90 1015.8
20260507214338 26 293 0.0 1.6 0.18 0.23 0.23 90 1015.9
20260507213837 26 257 1.6 1.6 0.18 0.23 0.23 89 1015.9
20260507213335 26 245 1.6 4.8 0.00 0.20 0.20 89 1015.4
20260507212831 26 269 1.6 1.6 0.00 0.20 0.20 89 1015.7
20260507212327 26 218 1.6 1.6 0.00 0.20 0.20 89 1015.5
20260507211824 26 263 1.6 1.6 0.18 0.20 0.20 88 1015.7
20260507211321 27 207 3.2 3.2 0.48 0.20 0.20 88 1015.5
20260507210817 27 244 1.6 3.2 0.61 0.18 0.18 87 1015.5
20260507210315 27 257 3.2 3.2 0.61 0.13 0.13 86 1015.3
20260507205811 27 266 0.0 0.0 0.18 0.05 0.05 86 1015.5
20260507205308 27 282 1.6 1.6 0.13 0.03 0.03 85 1015.6
20260507204804 27 205 3.2 3.2 0.13 0.03 0.03 84 1015.8
20260507204302 27 248 6.4 9.7 0.00 0.00 0.00 82 1015.7
20260507203759 28 235 6.4 11.3 0.00 0.00 0.00 80 1015.4
20260507203257 28 230 9.7 17.7 0.00 0.00 0.00 77 1015.5
20260507202753 28 174 8.0 11.3 0.00 0.00 0.00 76 1015.6
20260507202249 28 237 8.0 11.3 0.00 0.00 0.00 75 1015.6
20260507201744 28 248 6.4 6.4 0.00 0.00 0.00 75 1015.6
20260507201241 28 159 9.7 12.9 0.00 0.00 0.00 75 1015.5
20260507200737 28 268 9.7 16.1 0.00 0.00 0.00 74 1015.6
20260507200233 28 191 9.7 12.9 0.00 0.00 0.00 74 1015.7
20260507195730 28 241 6.4 6.4 0.00 0.00 0.00 74 1015.7
20260507195227 28 264 4.8 6.4 0.00 0.00 0.00 73 1015.7
20260507194724 29 151 11.3 16.1 0.00 0.00 0.00 72 1015.5
20260507194220 29 170 8.0 16.1 0.00 0.00 0.00 72 1015.6
20260507193717 29 252 3.2 3.2 0.00 0.00 0.00 71 1015.7
20260507193214 29 204 6.4 9.7 0.00 0.00 0.00 71 1015.8
20260507192710 28 181 11.3 20.9 0.00 0.00 0.00 71 1015.8
20260507192207 29 191 8.0 12.9 0.00 0.00 0.00 72 1015.8
20260507191702 28 271 11.3 17.7 0.00 0.00 0.00 75 1015.9
20260507191200 28 210 9.7 12.9 0.00 0.00 0.00 75 1016.1
20260507190657 28 169 8.0 11.3 0.00 0.00 0.00 74 1015.9
20260507190155 28 159 9.7 11.3 0.00 0.00 0.00 74 1016.1
20260507185653 28 156 6.4 6.4 0.00 0.00 0.00 74 1016.2
20260507185149 28 201 6.4 12.9 0.00 0.00 0.00 72 1016.1
20260507184647 29 214 11.3 14.5 0.00 0.00 0.00 72 1016.1
20260507184145 28 264 3.2 4.8 0.00 0.00 0.00 71 1016.2
20260507183641 29 212 4.8 6.4 0.00 0.00 0.00 71 1016.1
20260507183139 29 206 9.7 12.9 0.00 0.00 0.00 71 1016.1
20260507182635 30 270 6.4 9.7 0.00 0.00 0.00 71 1016.4
20260507182131 30 240 12.9 22.5 0.00 0.00 0.00 67 1016.3
20260507181628 31 170 6.4 9.7 0.00 0.00 0.00 65 1016.3
20260507181124 31 90 4.8 6.4 0.00 0.00 0.00 68 1016.5
20260507180620 31 135 12.9 16.1 0.00 0.00 0.00 65 1016.5
20260507180118 31 208 11.3 14.5 0.00 0.00 0.00 69 1016.5
20260507175613 31 219 3.2 4.8 0.00 0.00 0.00 63 1016.5
20260507175111 30 244 14.5 16.1 0.00 0.00 0.00 68 1016.6
20260507174608 31 223 16.1 20.9 0.00 0.00 0.00 65 1016.4
20260507174106 31 208 8.0 14.5 0.00 0.00 0.00 63 1016.8
20260507173603 30 233 14.5 16.1 0.00 0.00 0.00 68 1016.7
20260507173100 31 218 12.9 17.7 0.00 0.00 0.00 66 1016.8
20260507172555 30 181 11.3 16.1 0.00 0.00 0.00 68 1016.9
20260507172053 31 0 3.2 3.2 0.00 0.00 0.00 66 1017.0
20260507171548 31 264 12.9 16.1 0.00 0.00 0.00 68 1017.1
20260507171046 31 212 8.0 11.3 0.00 0.00 0.00 67 1017.0
20260507170542 31 147 11.3 12.9 0.00 0.00 0.00 66 1017.1
20260507170039 31 132 12.9 17.7 0.00 0.00 0.00 65 1017.2
20260507165535 30 217 4.8 6.4 0.00 0.00 0.00 65 1017.1
20260507165032 30 267 6.4 11.3 0.00 0.00 0.00 68 1017.4
20260507164528 30 186 14.5 17.7 0.00 0.00 0.00 66 1017.7
20260507164025 31 240 12.9 20.9 0.00 0.00 0.00 64 1017.6
20260507163522 31 214 16.1 25.7 0.00 0.00 0.00 66 1017.6
20260507163021 31 207 8.0 12.9 0.00 0.00 0.00 64 1017.6
20260507162520 31 206 14.5 17.7 0.00 0.00 0.00 64 1017.6
20260507162018 31 232 8.0 9.7 0.00 0.00 0.00 63 1017.7
20260507161514 31 283 8.0 9.7 0.00 0.00 0.00 64 1017.7
20260507161011 31 231 9.7 14.5 0.00 0.00 0.00 64 1017.8
20260507160507 31 212 8.0 9.7 0.00 0.00 0.00 63 1017.9
20260507160003 30 210 8.0 11.3 0.00 0.00 0.00 64 1018.0
20260507155459 31 209 9.7 11.3 0.00 0.00 0.00 67 1017.9
20260507154956 31 277 3.2 3.2 0.00 0.00 0.00 67 1018.1
20260507154453 30 215 16.1 24.1 0.00 0.00 0.00 70 1018.0
20260507153950 30 222 6.4 9.7 0.00 0.00 0.00 69 1018.1
20260507153447 30 212 11.3 16.1 0.00 0.00 0.00 70 1018.0
20260507152943 30 268 3.2 4.8 0.00 0.00 0.00 70 1018.2
20260507152439 30 212 11.3 14.5 0.00 0.00 0.00 70 1018.3
20260507151935 31 192 9.7 12.9 0.00 0.00 0.00 70 1018.1
20260507151432 30 222 6.4 11.3 0.00 0.00 0.00 69 1018.2
20260507150929 30 169 16.1 17.7 0.00 0.00 0.00 68 1018.4
20260507150426 30 211 11.3 14.5 0.00 0.00 0.00 68 1018.5
20260507145922 30 192 11.3 20.9 0.00 0.00 0.00 68 1018.4
20260507145418 30 102 11.3 20.9 0.00 0.00 0.00 67 1018.3
20260507144915 30 154 11.3 12.9 0.00 0.00 0.00 68 1018.4
20260507144412 30 186 14.5 16.1 0.00 0.00 0.00 69 1018.3
20260507143908 30 202 8.0 11.3 0.00 0.00 0.00 69 1018.4
20260507143406 31 210 8.0 12.9 0.00 0.00 0.00 68 1018.3
20260507142902 31 226 6.4 9.7 0.00 0.00 0.00 66 1018.4
20260507142358 30 234 8.0 11.3 0.00 0.00 0.00 68 1018.5
20260507141855 30 206 14.5 16.1 0.00 0.00 0.00 70 1018.7
20260507141352 30 247 3.2 3.2 0.00 0.00 0.00 69 1018.6
20260507140848 30 269 8.0 9.7 0.00 0.00 0.00 71 1018.6
20260507140345 30 173 6.4 6.4 0.00 0.00 0.00 69 1018.5
20260507135843 30 191 12.9 17.7 0.00 0.00 0.00 68 1018.6
20260507135340 30 248 9.7 12.9 0.00 0.00 0.00 67 1018.3
20260507134837 30 268 1.6 1.6 0.00 0.00 0.00 68 1018.4
20260507134333 30 164 9.7 11.3 0.00 0.00 0.00 69 1018.5
20260507133829 30 216 4.8 6.4 0.00 0.00 0.00 68 1018.5
20260507133325 29 238 9.7 11.3 0.00 0.00 0.00 68 1018.4
20260507132824 29 266 3.2 3.2 0.00 0.00 0.00 71 1018.4
20260507132319 28 256 6.4 6.4 0.00 0.00 0.00 71 1018.4
20260507131817 29 204 11.3 16.1 0.00 0.00 0.00 71 1018.3
20260507131313 29 149 8.0 11.3 0.00 0.00 0.00 69 1018.3
20260507130810 28 264 1.6 1.6 0.00 0.00 0.00 74 1018.3
20260507130308 28 167 8.0 12.9 0.00 0.00 0.00 74 1018.4
20260507125807 28 226 9.7 12.9 0.00 0.00 0.00 74 1018.2
20260507125306 28 231 4.8 4.8 0.00 0.00 0.00 73 1018.1
20260507124800 28 254 3.2 4.8 0.00 0.00 0.00 72 1018.1
20260507124257 28 230 3.2 4.8 0.00 0.00 0.00 73 1018.1
20260507123755 28 146 3.2 6.4 0.00 0.00 0.00 73 1018.3
20260507123253 28 270 4.8 9.7 0.00 0.00 0.00 75 1018.0
20260507122748 29 304 3.2 3.2 0.00 0.00 0.00 73 1018.2
20260507122244 29 67 3.2 4.8 0.00 0.00 0.00 73 1018.3
20260507121740 28 91 6.4 9.7 0.00 0.00 0.00 75 1017.9
20260507121236 28 280 1.6 1.6 0.00 0.00 0.00 73 1017.7
20260507120732 27 263 3.2 4.8 0.00 0.00 0.00 75 1017.9
20260507120229 28 237 1.6 3.2 0.00 0.00 0.00 72 1017.7
20260507115725 27 326 3.2 3.2 0.00 0.00 0.00 74 1017.8
20260507115221 26 274 0.0 1.6 0.00 0.00 0.00 76 1017.8
20260507114717 26 315 1.6 3.2 0.00 0.00 0.00 77 1017.7
20260507114215 26 297 1.6 1.6 0.00 0.00 0.00 77 1017.7
20260507113712 26 303 1.6 1.6 0.00 0.00 0.00 77 1017.8
20260507113209 26 280 3.2 3.2 0.00 0.00 0.00 76 1017.7
20260507112706 26 266 0.0 0.0 0.00 0.00 0.00 76 1017.6
20260507112203 26 286 0.0 1.6 0.00 0.00 0.00 75 1017.7
20260507111700 26 284 0.0 1.6 0.00 0.00 0.00 77 1017.7
20260507111157 25 289 3.2 3.2 0.00 0.00 0.00 79 1017.6
20260507110653 25 281 0.0 0.0 0.00 0.00 0.00 81 1017.7
20260507110150 25 316 3.2 3.2 0.00 0.00 0.00 82 1017.6
20260507105647 24 277 1.6 1.6 0.00 0.00 0.00 83 1017.4
20260507105142 24 337 3.2 3.2 0.00 0.00 0.00 84 1017.6
20260507104640 23 316 3.2 3.2 0.00 0.00 0.00 85 1017.5
20260507104136 23 321 1.6 1.6 0.00 0.00 0.00 86 1017.4
20260507103632 23 64 3.2 4.8 0.00 0.00 0.00 86 1017.3
20260507103130 23 82 1.6 3.2 0.00 0.00 0.00 87 1017.1
20260507102626 23 10 3.2 3.2 0.00 0.00 0.00 87 1017.1
20260507102122 23 349 3.2 3.2 0.00 0.00 0.00 87 1017.1
20260507101618 23 13 3.2 3.2 0.00 0.00 0.00 87 1016.9
20260507101114 23 276 1.6 3.2 0.00 0.00 0.00 87 1016.8
20260507100611 23 322 1.6 3.2 0.00 0.00 0.00 87 1017.0
20260507100110 23 341 3.2 3.2 0.00 0.00 0.00 87 1016.8
20260507095607 23 330 3.2 3.2 0.00 0.00 0.00 87 1017.0
20260507095104 23 21 3.2 4.8 0.00 0.00 0.00 87 1017.2
20260507094600 23 330 3.2 3.2 0.00 0.00 0.00 87 1017.1
20260507094057 23 317 1.6 1.6 0.00 0.00 0.00 87 1017.1
20260507093554 23 286 0.0 0.0 0.00 0.00 0.00 87 1017.1
20260507093053 23 286 0.0 0.0 0.00 0.00 0.00 87 1017.2
20260507092549 23 286 0.0 0.0 0.00 0.00 0.00 87 1017.1
20260507092046 23 285 1.6 1.6 0.00 0.00 0.00 87 1017.1
20260507091543 23 291 0.0 0.0 0.00 0.00 0.00 86 1017.2
20260507091039 23 306 1.6 1.6 0.00 0.00 0.00 86 1017.0
20260507090534 23 289 1.6 1.6 0.00 0.00 0.00 85 1016.9
20260507090032 23 309 1.6 1.6 0.00 0.00 0.00 85 1017.0
20260507085529 23 316 1.6 3.2 0.00 0.00 0.00 85 1017.2
20260507085025 23 335 3.2 4.8 0.00 0.00 0.00 85 1017.1
20260507084522 23 321 3.2 3.2 0.00 0.00 0.00 85 1016.9
20260507084019 23 36 4.8 4.8 0.00 0.00 0.00 85 1016.9
20260507083515 23 315 3.2 3.2 0.00 0.00 0.00 84 1017.0
20260507083013 23 11 4.8 4.8 0.00 0.00 0.00 85 1017.0
20260507082509 23 1 3.2 3.2 0.00 0.00 0.00 85 1016.9
20260507082005 23 299 3.2 3.2 0.00 0.00 0.00 86 1016.8
20260507081501 23 344 1.6 3.2 0.00 0.00 0.00 86 1016.8
20260507080958 23 310 1.6 1.6 0.00 0.00 0.00 85 1016.8
20260507080454 23 339 1.6 3.2 0.00 0.00 0.00 85 1016.8
20260507075949 23 311 1.6 1.6 0.00 0.00 0.00 85 1016.8
20260507075446 23 339 3.2 3.2 0.00 0.00 0.00 85 1016.7
20260507074943 23 38 3.2 4.8 0.00 0.00 0.00 85 1016.8
20260507074440 23 21 3.2 3.2 0.00 0.00 0.00 85 1016.9
20260507073938 23 57 4.8 4.8 0.00 0.00 0.00 86 1016.8
20260507073434 23 26 3.2 3.2 0.00 0.00 0.00 86 1017.0
20260507072930 22 308 1.6 1.6 0.00 0.00 0.00 86 1017.1
20260507072428 22 310 1.6 3.2 0.00 0.00 0.00 86 1017.0
20260507071925 23 300 1.6 1.6 0.00 0.00 0.00 86 1017.0
20260507071422 23 286 0.0 0.0 0.00 0.00 0.00 86 1017.1
20260507070918 23 319 3.2 3.2 0.00 0.00 0.00 86 1017.1
20260507070416 23 342 3.2 3.2 0.00 0.00 0.00 86 1017.1
20260507065913 23 292 1.6 1.6 0.00 0.00 0.00 86 1017.1
20260507065409 23 304 0.0 1.6 0.00 0.00 0.00 85 1017.2
20260507064907 23 3 3.2 3.2 0.00 0.00 0.00 85 1017.4
20260507064405 23 322 3.2 3.2 0.00 0.00 0.00 85 1017.2
20260507063902 23 359 3.2 4.8 0.00 0.00 0.00 85 1017.5
20260507063359 23 307 1.6 1.6 0.00 0.00 0.00 85 1017.3
20260507062856 23 329 1.6 3.2 0.00 0.00 0.00 85 1017.4
20260507062353 23 330 3.2 3.2 0.00 0.00 0.00 84 1017.5
20260507061851 23 31 3.2 4.8 0.00 0.00 0.00 84 1017.7
20260507061348 23 305 1.6 1.6 0.00 0.00 0.00 84 1017.6
20260507060847 23 351 1.6 3.2 0.00 0.00 0.00 84 1017.6
20260507060343 23 23 3.2 4.8 0.00 0.00 0.00 84 1017.8
20260507055840 23 285 1.6 1.6 0.00 0.00 0.00 84 1018.0
20260507055335 23 59 3.2 3.2 0.00 0.00 0.00 83 1018.0
20260507054832 23 301 1.6 1.6 0.00 0.00 0.00 84 1018.1
20260507054328 23 310 1.6 1.6 0.00 0.00 0.00 84 1017.9
20260507053825 23 41 3.2 3.2 0.00 0.00 0.00 84 1018.0
20260507053323 23 59 3.2 4.8 0.00 0.00 0.00 84 1018.1
20260507052822 23 349 3.2 4.8 0.00 0.00 0.00 84 1018.1
20260507052318 23 18 3.2 3.2 0.00 0.00 0.00 84 1018.3
20260507051816 23 301 1.6 1.6 0.00 0.00 0.00 84 1018.3
20260507051313 23 296 3.2 3.2 0.00 0.00 0.00 84 1018.4
20260507050810 23 66 3.2 3.2 0.00 0.00 0.00 84 1018.5
20260507050306 23 353 3.2 3.2 0.00 0.00 0.00 84 1018.6
20260507045803 23 16 1.6 3.2 0.00 0.00 0.00 84 1018.6
20260507045300 23 340 3.2 3.2 0.00 0.00 0.00 84 1018.8
20260507044757 23 307 1.6 1.6 0.00 0.00 0.00 84 1018.9
20260507044253 23 311 1.6 3.2 0.00 0.00 0.00 83 1018.8
20260507043749 24 310 3.2 3.2 0.00 0.00 0.00 83 1019.0
20260507043246 24 60 4.8 6.4 0.00 0.00 0.00 83 1019.0
20260507042742 24 59 4.8 4.8 0.00 0.00 0.00 83 1019.2
20260507042237 23 331 3.2 3.2 0.00 0.00 0.00 83 1019.1
20260507041736 23 40 4.8 4.8 0.00 0.00 0.00 84 1019.3
20260507041232 23 39 4.8 4.8 0.00 0.00 0.00 85 1019.0
20260507040729 23 302 1.6 1.6 0.00 0.00 0.00 85 1019.1
20260507040225 23 311 1.6 1.6 0.00 0.00 0.00 85 1019.1
20260507035721 23 331 1.6 3.2 0.00 0.00 0.00 85 1019.4
20260507035217 24 343 3.2 3.2 0.00 0.00 0.00 84 1019.3
20260507034714 24 348 3.2 3.2 0.00 0.00 0.00 84 1019.5
20260507034211 23 20 3.2 4.8 0.00 0.00 0.00 85 1019.4
20260507033710 24 323 1.6 3.2 0.00 0.00 0.00 85 1019.5
20260507033207 24 321 3.2 4.8 0.00 0.00 0.00 84 1019.5
20260507032704 24 14 3.2 3.2 0.00 0.00 0.00 84 1019.5
20260507032159 24 61 3.2 4.8 0.00 0.00 0.00 83 1019.4
20260507031657 24 318 3.2 3.2 0.00 0.00 0.00 83 1019.4
20260507031153 24 349 4.8 4.8 0.00 0.00 0.00 84 1019.2
20260507030650 24 41 3.2 4.8 0.00 0.00 0.00 84 1019.3
20260507030148 24 24 3.2 3.2 0.00 0.00 0.00 84 1019.4
20260507025645 24 16 6.4 6.4 0.00 0.00 0.00 84 1019.4
20260507025142 24 35 1.6 1.6 0.00 0.00 0.00 84 1019.4
20260507024640 24 299 1.6 1.6 0.00 0.00 0.00 84 1019.4
20260507024137 24 310 1.6 3.2 0.00 0.00 0.00 84 1019.5
20260507023632 25 334 1.6 3.2 0.00 0.00 0.00 84 1019.6
20260507023130 25 304 1.6 1.6 0.00 0.00 0.00 83 1019.4
20260507022627 25 326 3.2 3.2 0.00 0.00 0.00 83 1019.4
20260507022122 25 317 3.2 3.2 0.00 0.00 0.00 83 1019.4
20260507021619 25 340 3.2 3.2 0.00 0.00 0.00 82 1019.4
20260507021115 25 330 1.6 3.2 0.00 0.00 0.00 82 1019.3
20260507020613 25 353 3.2 4.8 0.00 0.00 0.00 82 1019.3
20260507020109 25 19 3.2 3.2 0.00 0.00 0.00 82 1019.4
20260507015607 25 10 3.2 3.2 0.00 0.00 0.00 82 1019.2
20260507015104 25 53 3.2 4.8 0.00 0.00 0.00 82 1019.2
20260507014601 25 315 3.2 4.8 0.00 0.00 0.00 82 1019.1
20260507014056 25 316 1.6 1.6 0.00 0.00 0.00 83 1019.3
20260507013553 25 328 1.6 1.6 0.00 0.00 0.00 82 1019.1
20260507013051 25 32 3.2 3.2 0.00 0.00 0.00 82 1019.1
20260507012548 25 329 1.6 3.2 0.00 0.00 0.00 82 1018.8
20260507012044 25 309 3.2 3.2 0.00 0.00 0.00 83 1019.1
20260507011541 26 46 3.2 4.8 0.00 0.00 0.00 82 1018.8
20260507011038 26 27 4.8 4.8 0.00 0.00 0.00 83 1018.9
20260507010532 26 293 0.0 1.6 0.00 0.00 0.00 82 1018.7
20260507010029 26 287 1.6 1.6 0.00 0.00 0.00 81 1018.9